Погода в Намангане

Погода в Намангане : погода сейчас, прогноз погоды и архив. Всё, что Вы хотите узнать о погоде в Намангане!

Хотите узнать прогноз погоды в Намангане? Тогда Вам сюда: Погода в Намангане

Поиск расширенной информации на нашем сайте:

Другие новости

Новости СМИ2

Главная страница сайта

Новости сайта

02.10.2013

Напоминаем, что на нашем новом сайте вы можете получить высокодетализированные прогнозы погоды по пунктам России, СНГ и мира (включающие важные для авиации метеовеличины, такие как направление и скорость ветра, видимость, явления погоды, количество и форма облачности, нижняя и верхняя граница облачности), а также ознакомиться с разнообразными материалами по авиационной метеорологии и подборкой полезных ссылок на эту тему.

Сайт Метеоцентр.Азия посвящён разработке технологий оптимизации авиаметеорологического обслуживания, включая проектирование и перспективное создание нескольких автоматизированных авиаметеорологических систем:
- система выпуска высокодетальных прогностических карт явлений погоды для нижнего воздушного пространства по России и ближнему зарубежью;
- система верификации прогнозов TAF (выпускаемых синоптиками официальных АМСГ РФ и ближнего зарубежья) и AUTOTAF (выпускаемых сайтом Метеоцентр.Азия) - выявление ошибок, онлайн-сопоставление с фактической погодой METAR, автоматическое внесение коррективов в прогнозы при резком отклонении фактической погоды от прогноза, подсчёт оправдываемости прогнозов по элементам и в целом;
- система обработки, анализа и отображения авиаметеорологической информации для применения провайдерами метеорологической информации.


Погода в Намангане - сегодня

Время (UTC), дата Ветер
(°,м/с) 
Видим.   Явления Облачность Т
(°С)
Тd
(°С)
f(%) Тe
(°С)
Pmin
(гПа)
dP
(гПа)
Po
(мм)
O2
(г/м3)
Тmin Tmax R s Состояние
почвы
06 25.05.17 130 (ЮВ) 10 км    5/3 1500 м кучево-дожд., верхняя 
[Cb calv|Ci]
+30.4 +12.9 34 +37  1007.9  -1  717  257  +20         
09 25.05.17 200 (Ю) 10 км    8/3 1500 м кучево-дожд., верхняя 
[Cb calv|Ci]
+34.1 +8.6 21 +34  1005.8  -1.5  716  255           
12 25.05.17 320 (СЗ) 10 км    9/4 1500 м кучево-дожд., средняя 
[Cb calv|Ac cuf]
+32.4 +11.4 28 +36  1006.7  0.7  716  256           
15 25.05.17 310 (СЗ) 10 км    9/4 1500 м кучево-дожд., средняя 
[Cb calv|Ac cuf]
+27.8 +9.8 32 +30  1009.1  1.4  717  261    +35.3       
18 25.05.17 350 (С) 10 км  зарница  8/4 1500 м кучево-дожд., средняя 
[Cb calv|Ac cuf]
+24.5 +8.8 37 +25  1011  1.2  718  264    +35.3       
21 25.05.17 080 (В) 10 км  зарница  10/4 1500 м кучево-дожд., средняя 
[Cb calv|Ac As]
+24.6 +10.6 41 +27  1011.6  0.7  719  264           
00 26.05.17 340 (С) 10 км  {гроза, ливн. осадки}  9/4 1500 м кучево-дожд., средняя 
[Cb calv|Ac cuf]
+21.3 +10.5 50 +24  1013.5  1.2  720  267           
03 26.05.17 040 (СВ) 10 км    4/0 средняя 
[Ac cuf]
+24.6 +12.2 46 +30  1015  721  264      0.0     
06 26.05.17 080 (В) 10 км    3/1 1500 м кучево-дожд., верхняя 
[Cb calv|Ci fib]
+29 +13.8 39 +37  1013.8  -0.3  721  260  +20.4    0.0     
09 26.05.17 230 (ЮЗ) 10 км    4/3 1500 м кучево-дожд., верхняя 
[Cb calv|Ci fib]
+32 +10.7 27 +35  1012.3  -1  720  258           
12 26.05.17 200 (Ю) 10 км    6/3 1500 м кучево-дожд., верхняя 
[Cb calv|Ci fib]
+32.4 +12 29 +37  1011.7  -0.5  720  257           
21 26.05.17 360 (С) 10 км    5/3 1500 м кучево-дожд., верхняя 
[Cb calv|Ci]
+23.6 +9.7 41 +25  1012.6  -1  719  265           
03 27.05.17 050 (СВ) 10 км    9/0 верхняя 
[Ci]
+26.5 +10.5 37 +29  1012.8  0.4  720  263           
06 27.05.17 060 (СВ) 10 км    3/1 1500 м кучево-дожд., верхняя 
[Cb calv|Ci]
+29.7 +8.2 26 +30  1012.2  -0.1  720  260  +19.5         
09 27.05.17 080 (В) 10 км    4/3 1500 м кучево-дожд., верхняя 
[Cb calv|Ci]
+32.7 +6.7 20 +33  1010.4  -1.2  719  258           
12 27.05.17 140 (ЮВ) 10 км    3/3 1500 м кучево-дожд. 
[Cb calv]
+33 +5.9 18 +33  1008.7  -1.6  718  257           
18 27.05.17 330 (СЗ) 10 км    ясно 
+24 +13.8 53 +32  1010.8  718  263    +34       
21 27.05.17 340 (С) 10 км    ясно 
+22.3 +12.9 55 +29  1011.1  718  265           
00 28.05.17 340 (С) 10 км    ясно 
+21.6 +12.2 55 +27  1010.9  -0.4  718  266           
03 28.05.17 330 (СЗ) 10 км    8/0 верхняя 
[Cs]
+28.5 +14.2 42 +37  1009.9  0.3  718  259           
06 28.05.17 350 (С) 10 км    9/3 1500 м кучево-дожд., средняя 
[Cb calv|Ac cast]
+29.5 +8.5 27 +30  1009.4  -0.3  718  260  +21         
09 28.05.17 340 (С) 10 км    9/6 1500 м кучево-дожд., верхняя 
[Cb cap|Ci]
+29.6 +11 32 +33  1009  -0.4  718  259           
18 28.05.17 330 (СЗ) 10 км    ясно 
+22.5 +11 48 +26  1011.7  1.9  719  265    +31       
21 28.05.17 350 (С) 10 км    ясно 
+22 +9.7 46 +24  1011.6  -0.2  719  266           
00 29.05.17 340 (С) 10 км    ясно 
+19.9 +9.3 50 +22  1011.5  -0.6  718  268           
Время (UTC), дата Ветер
(°,м/с) 
Видим.   Явления Облачность Т
(°С)
Тd
(°С)
f(%) Тe
(°С)
Pmin
(гПа)
dP
(гПа)
Po
(мм)
O2
(г/м3)
Тmin Tmax R s Состояние
почвы

Для получения пояснительной информации подведите курсор к названию столбца.

ПОГОДА в Намангане - архив

Всё, что Вы хотите узнать о погоде в Намангане - удобно и подробно!

Выберите нужную дату (начиная с 1 января 2015* года) и нажмите кнопку "Найти".
Будут отображены архивные сводки погоды по пункту Наманган, начиная с указанной даты.


Отображать данные в формате CSV (для использования в таблицах Excel)


Внимание! Наш архив погоды предназначен исключительно для личного некоммерческого использования в познавательных целях. Если Вам необходимы официальные справки о состоянии погоды (для производственных, юридических, коммерческих и т.п. целей), обращайтесь в органы Росгидромета.

*Примечание: данная дата относится к архиву по метеостанциям СССР (Россия, СНГ, Балтия).
Архив по метеостанциям Зарубежной Европы и Азии (кроме Китая) хранится 10 дней, по другим регионам земного шара (Китай, Африка, Америка, Австралия, Океания) - 1 день.

Наманган - район местоположения метеостанции


Название, широта, долгота, высота метеостанции:
Наманган 41°ш. 71.6°д. 474 м над ур. моря [Узбекистан]

Дополнительная информация

В oтличие oт бoльшинства пoгoдных сайтoв мы публикуем пoдрoбную метеoинфoрмацию в детальнoм прoфессиoнальнoм фoрмате.

Характеристики температуры и влажнoсти вoздуха измеряются на высoте 2 м в тени вдали oт зданий и деревьев.
Скoрoсть ветра измеряется на высoте 10 м (на урoвне рoста челoвека скoрoсть ветра ниже в 1.5-2 раза). Если метеoстанция нахoдится в гoрoде или в лесу, тo скoрoсть ветра занижена на 2-4 м/с пo сравнению с oткрытым местoм. Скoрoсть ветра над акватoриями крупных рек и oзёр, а также на вершинах хoлмoв на 2-5 м/с выше, чем в oбычных услoвиях.
Атмoсфернoе давление в разных тoчках местнoсти мoжет значительнo oтличаться oт давления на метеoстанции, в зависимoсти oт услoвий рельефа (при пoдъёме на 10 м давление пoнижается примернo на 1 мм рт.ст.).